x

Santa Monica Basin - 33nm Wsw Of Santa Monica, Ca (46025) Wave Buoy

2:40 - Sat 27th Aug 2016 All times are PDT. -7 hours from GMT.

  • Sig Wave height 3.0ft
  • Swell Direction
  • Average Period 5s
  • Wind
    7mph, 9mph gusts
  • Sea Temp 71°f
  • Luft Temp 65°f
  • Sea Pressure 1014mb
  • Santa Monica Basin - 33nm Wsw Of Santa Monica, Ca
  • Santa Monica Basin - 33nm Wsw Of Santa Monica, Ca

More Historic Weather Station data

Upgrade to MSW Pro to gain access to the past 30 days of data for over 8000 Wavebouys and Weather Stations around the globe.

Join Pro

Comparision Forecast

View Surf forecast
   
Sa 08/27 2:40 3ft  -  5s 7 9 mph 1014mb 71f 65f
2:30  -   -   -  7 11 mph 1014mb 71f 65f
2:20  -   -   -  9 11 mph 1014mb 71f 65f
2:10  -   -   -  9 11 mph 1014mb 71f 65f
2:00  -   -   -  9 11 mph 1014mb 71f 65f
1:50 3ft 13s 5s 9 13 mph 1014mb 71f 65f
1:40  -   -   -  9 11 mph 1014mb 71f 65f
1:30  -   -   -  9 11 mph 1014mb 71f 65f
1:20  -   -   -  9 11 mph 1014.3mb 71f 65f
1:10  -   -   -  9 11 mph 1014.3mb 71f 65f
1:00  -   -   -  9
mph
1014.1mb 71f 65f
12:50 3ft 15s 5s 9 11 mph 1014.1mb 71f 65f
12:40  -   -   -  9 11 mph 1014.1mb 70f 65f
12:30  -   -   -  9 11 mph 1014.1mb 70f 65f
12:20  -   -   -  7 9 mph 1014mb 70f 65f
12:10  -   -   -  9
mph
1014mb 70f 65f
12:00  -   -   -  9 11 mph 1014mb 70f 65f
Fr 08/26 11:50 3ft 15s 5s 9 11 mph 1014.1mb 71f 65f
11:40 3ft  -  5s 9 11 mph 1014.1mb 70f 65f
11:30  -   -   -  9 11 mph 1014.1mb 71f 65f
11:20  -   -   -  9 11 mph 1014.3mb 71f 65f
11:10  -   -   -  9 11 mph 1014.3mb 71f 65f
11:00  -   -   -  11 13 mph 1014.4mb 71f 65f
10:50 2.5ft 13s 6s 11 13 mph 1014.4mb 71f 65f
10:40  -   -   -  11 13 mph 1014.4mb 71f 65f
10:30  -   -   -  9 11 mph 1014.4mb 71f 66f
10:20  -   -   -  9 11 mph 1014.3mb 71f 66f
10:10  -   -   -  11
mph
1014.3mb 71f 66f
10:00  -   -   -  9 11 mph 1014.3mb 71f 65f
9:50 2.5ft  -  6s 9 11 mph 1014.1mb - 66f
9:40 2.5ft 14s  -   -  mph - 71f -
9:30  -   -   -  9 11 mph 1014.1mb 71f 66f
9:20  -   -   -  7 9 mph 1014.1mb 71f 66f
9:10  -   -   -  7 11 mph 1014.1mb 71f 66f
9:00  -   -   -  9 11 mph 1014mb 71f 65f
8:50 2.5ft 15s 7s 9 11 mph 1014mb 71f 66f
8:40  -   -   -  9 11 mph 1013.9mb 71f 66f
8:30  -   -   -  7 9 mph 1013.8mb 71f 66f
8:20  -   -   -  7 11 mph 1013.8mb 71f 66f
8:10  -   -   -  7 9 mph 1013.8mb 71f 65f
8:00  -   -   -  7 11 mph 1013.6mb 71f 66f
7:50 3ft 14s 8s 4 9 mph 1013.5mb 71f 65f
7:40  -   -   -  4 7 mph 1013.5mb 71f 65f
7:30  -   -   -  4 9 mph 1013.4mb 71f 65f
7:20  -   -   -  4 7 mph 1013.3mb 71f 65f
7:10  -   -   -  4
mph
1013.3mb 71f 65f
7:00  -   -   -  4 7 mph 1013.3mb 71f 65f
6:50 2.5ft 15s 7s 4 7 mph 1013.3mb 71f 65f
6:40  -   -   -  7 9 mph 1013.1mb 71f 65f
6:30  -   -   -  4 7 mph 1013.3mb 71f 65f
6:20  -   -   -  7 9 mph 1013.3mb 71f 65f
6:10  -   -   -  7 9 mph 1013.5mb 71f 65f
6:00  -   -   -  7 9 mph 1013.5mb 71f 65f
5:50 3ft 14s 8s 7 9 mph 1013.5mb 71f 65f
5:40  -   -   -  4 9 mph 1013.5mb 71f 65f
5:30  -   -   -  7 9 mph 1013.5mb 71f 65f
5:20  -   -   -  4 9 mph 1013.5mb 71f 65f
5:10  -   -   -  7 9 mph 1013.5mb 71f 65f
5:00  -   -   -  7 9 mph 1013.5mb 71f 65f
4:50 2.5ft 13s 7s 7 9 mph 1013.5mb 71f 65f
4:40  -   -   -  7
mph
1013.8mb 71f 65f
4:30  -   -   -  7 9 mph 1013.8mb 71f 65f
4:20  -   -   -  7 9 mph 1013.6mb 71f 65f
4:10  -   -   -  7 9 mph 1013.6mb 71f 65f
4:00  -   -   -  7 9 mph 1013.8mb 71f 65f
3:50 2.5ft 14s 6s 7 9 mph 1013.8mb 71f 65f
3:40  -   -   -  7 9 mph 1013.8mb 71f 65f
3:30  -   -   -  9 11 mph 1014mb 71f 65f
3:20  -   -   -  9 11 mph 1014mb 71f 65f
3:10  -   -   -  9 11 mph 1014mb 71f 65f
3:00  -   -   -  11 13 mph 1014mb 71f 65f
2:50 3ft 14s 6s 9 13 mph 1014.1mb 71f 65f
2:40  -   -   -  9 13 mph 1014.4mb 71f 65f
2:30  -   -   -  11 13 mph 1014.5mb 71f 65f
2:20  -   -   -  11 16 mph 1014.5mb 71f 65f
2:10  -   -   -  13 16 mph 1014.6mb 71f 65f
2:00  -   -   -  11 16 mph 1014.6mb 71f 65f
1:50 3ft 15s 6s 11 13 mph 1014.9mb 71f 65f
1:40 3ft  -  6s 11 13 mph 1014.9mb 71f 65f
1:30  -   -   -  11 13 mph 1014.9mb 71f 65f
1:20  -   -   -  13 16 mph 1015mb 71f 65f
1:10  -   -   -  13 16 mph 1015mb 71f 65f
1:00  -   -   -  11 13 mph 1015.1mb 71f 65f
12:50 3ft 14s 6s 11 13 mph 1015.1mb 71f 65f
12:40  -   -   -  11 13 mph 1015.1mb 71f 65f
12:30  -   -   -  11 13 mph 1015.1mb 71f 65f
12:20  -   -   -  9 13 mph 1015.3mb 70f 65f
12:10  -   -   -  9 11 mph 1015.4mb 70f 65f
12:00  -   -   -  9 11 mph 1015.4mb 70f 65f
11:50 2.5ft 15s 7s 9 13 mph 1015.4mb 70f 65f
11:40  -   -   -  9 13 mph 1015.5mb 70f 65f
11:30  -   -   -  9 11 mph 1015.4mb 70f 65f
11:20  -   -   -  9 13 mph 1015.4mb - 65f
11:10  -   -   -  9 11 mph 1015.5mb 70f 65f
11:00  -   -   -  9 11 mph 1015.5mb 70f 64f
10:50 2.5ft 15s 7s 9 11 mph 1015.4mb 70f 64f
10:40  -   -   -  9 13 mph 1015.4mb 70f 64f
10:30  -   -   -  9 11 mph 1015.3mb 70f 64f
10:20  -   -   -  9 11 mph 1015.3mb 70f 65f
10:10  -   -   -  9 11 mph 1015.1mb 70f 64f
10:00  -   -   -  9 11 mph 1015.1mb 70f 64f
9:50 2.5ft 16s 6s 9 11 mph 1015.1mb 70f 65f
9:40  -   -   -  9 11 mph 1015mb 70f 65f
9:30  -   -   -  7 11 mph 1015mb 70f 65f
9:20  -   -   -  4 7 mph 1014.9mb 69f 65f
9:10  -   -   -  4 7 mph 1014.8mb 69f 65f
9:00  -   -   -  4 7 mph 1014.6mb 69f 65f
8:50 2.5ft 14s 6s 4 7 mph 1014.6mb 69f 65f
8:40  -   -   -  7 9 mph 1014.5mb 69f 65f
8:30  -   -   -  4 9 mph 1014.4mb 69f 65f
8:20  -   -   -  7 9 mph 1014.3mb 69f 65f
8:10  -   -   -  9 11 mph 1014.1mb 69f 65f
8:00  -   -   -  7 11 mph 1014mb 69f 65f
7:50 2.5ft 14s 6s 9 11 mph 1014mb 69f 65f
7:40  -   -   -  9 11 mph 1014mb 69f 65f
7:30  -   -   -  7 9 mph 1013.8mb 69f 65f
7:20  -   -   -  9 11 mph 1013.5mb 69f 65f
7:10  -   -   -  9 11 mph 1013.5mb 69f 65f
7:00  -   -   -  9 11 mph 1013.5mb 69f 65f
6:50 2.5ft 14s 6s 9 11 mph 1013.5mb 69f 65f
6:40  -   -   -  9 11 mph 1013.5mb 69f 65f
6:30  -   -   -  9 11 mph 1013.5mb 69f 65f
6:20  -   -   -  9 11 mph 1013.4mb 69f 65f
6:10  -   -   -  7 9 mph 1013.3mb 69f 65f
6:00  -   -   -  7 9 mph 1013.1mb 69f 65f
5:50 2.5ft 15s 6s 7 9 mph 1013mb 69f 64f
5:40 2.5ft  -  6s 4 7 mph 1013mb 69f 64f
5:30  -   -   -  4 9 mph 1013mb 69f 64f
5:20  -   -   -  4 9 mph 1013mb 69f 64f
5:10  -   -   -  7 9 mph 1012.8mb 69f 65f
5:00  -   -   -  7 9 mph 1012.8mb 69f 65f
4:50 2.5ft 14s 6s 7 9 mph 1012.8mb 70f 65f
4:40  -   -   -  7 9 mph 1012.6mb 70f 65f
4:30  -   -   -  7 11 mph 1012.8mb 70f 65f
4:20  -   -   -  4 7 mph 1012.6mb 70f 65f
4:10  -   -   -  4 7 mph 1012.6mb 69f 65f
4:00  -   -   -  7 9 mph 1012.8mb 70f 65f
3:50 2.5ft 13s 6s 7 9 mph 1012.8mb 70f 65f
3:40  -   -   -  7 9 mph 1012.6mb 70f 65f
3:30  -   -   -  4 9 mph 1012.6mb 70f 65f
3:20  -   -   -  4 7 mph 1012.6mb 70f 65f
3:10  -   -   -  4 9 mph 1012.6mb 70f 65f
3:00  -   -   -  4 7 mph 1012.6mb 70f 65f
2:50 2.5ft 14s 5s 2 7 mph 1012.5mb 70f 65f
2:40  -   -   -  4 7 mph 1012.5mb 70f 64f
2:30  -   -   -  4 7 mph 1012.5mb 70f 64f
2:20  -   -   -  4 9 mph 1012.5mb 70f 64f
2:10  -   -   -  7 9 mph 1012.5mb 70f 64f
2:00  -   -   -  7
mph
1012.6mb 70f 64f
1:50 2.5ft 14s 5s 7
mph
1012.6mb 70f 64f
1:40  -   -   -  7 9 mph 1012.6mb 70f 64f
1:30  -   -   -  4 7 mph 1012.6mb 70f 64f
1:20  -   -   -  7
mph
1012.8mb 70f 64f
1:10  -   -   -  7 9 mph 1012.8mb 70f 64f
1:00  -   -   -  7 9 mph 1012.9mb 70f 64f
12:50 3ft 15s 5s 7 9 mph 1013mb 70f 64f
12:40  -   -   -  7 9 mph 1012.9mb 70f 64f
12:30  -   -   -  4 7 mph 1013mb 70f 64f
12:20  -   -   -  4 7 mph 1013mb 70f 64f
12:10  -   -   -  2 7 mph 1013mb 70f 65f
12:00  -   -   -   -  4 mph 1013mb 70f 65f
Do 08/25 11:50 2.5ft 15s 5s  -  2 mph 1012.9mb 70f 64f
11:40  -   -   -  2 4 mph 1013mb 70f 64f
11:30  -   -   -  2 4 mph 1012.9mb 70f 64f
11:20  -   -   -  4 7 mph 1012.9mb 70f 65f
11:10  -   -   -   -  2 mph 1013mb 70f 65f
11:00  -   -   -   -  2 mph 1013mb 70f 65f
10:50 2.5ft 14s 5s 2 4 mph 1013mb 70f 65f
10:40  -   -   -  2 4 mph 1012.9mb 70f 65f
10:30  -   -   -  2 4 mph 1012.9mb 70f 65f
10:20  -   -   -  2 7 mph 1013mb 70f 65f
10:10  -   -   -  4 9 mph 1013mb 70f 65f
10:00  -   -   -  7 9 mph 1012.9mb 70f 65f
9:50 2.5ft 14s 5s 7 9 mph 1013mb 70f 65f
9:40  -   -   -  7 9 mph 1012.9mb 70f 65f
9:30  -   -   -  7 11 mph 1012.9mb 70f 65f
9:20  -   -   -  7 11 mph 1012.8mb 70f 65f
9:10  -   -   -  7 9 mph 1012.6mb 70f 65f
9:00  -   -   -  7 9 mph 1012.5mb 70f 65f
8:50 2.5ft 15s 6s 7 9 mph 1012.5mb 70f 65f
8:40  -   -   -  9 11 mph 1012.3mb 70f 65f
8:30  -   -   -  7 11 mph 1012.1mb 70f 65f
8:20  -   -   -  7 11 mph 1012mb - 65f
8:10  -   -   -  4 7 mph 1012.1mb 70f 65f
8:00  -   -   -  4 7 mph 1012mb 70f 65f
7:50 3ft 15s 6s 4 7 mph 1012mb 70f 65f
7:40 3ft  -  6s 4 9 mph 1012mb 70f 65f
7:30  -   -   -  4 7 mph 1012mb 70f 65f
7:20  -   -   -  7
mph
1012.1mb 69f 65f
7:10  -   -   -  7 9 mph 1012mb 70f 65f
7:00  -   -   -  7 9 mph 1011.9mb 69f 65f
6:50 2.5ft 16s 6s 7 9 mph 1011.9mb 69f 65f
6:40  -   -   -  7 9 mph 1012mb 69f 64f
6:30  -   -   -  7 9 mph 1012mb 69f 65f
6:20  -   -   -  7 9 mph 1012mb 69f 64f
6:10  -   -   -  7 9 mph 1012mb 69f 64f
6:00  -   -   -  9
mph
1012mb 69f 64f
5:50 2.5ft 14s 6s 9 11 mph 1012mb 69f 65f
5:40  -   -   -  7 9 mph 1012mb 69f 65f
5:30  -   -   -  9 11 mph 1012mb 69f 65f
5:20  -   -   -  9 11 mph 1012.1mb 69f 65f
5:10  -   -   -  9 11 mph 1012.1mb 69f 65f
5:00  -   -   -  9 11 mph 1012.3mb 69f 65f
4:50 2.5ft 14s 5s 9
mph
1012.1mb 69f 65f
4:40  -   -   -  9 11 mph 1012.1mb 70f 65f
4:30  -   -   -  9 13 mph 1012.3mb 70f 65f
4:20  -   -   -  11 13 mph 1012.3mb 70f 65f
4:10  -   -   -  11 13 mph 1012.4mb 69f 65f
4:00  -   -   -  11 13 mph 1012.4mb 70f 65f
3:50 2.5ft 14s 5s 11 13 mph 1012.4mb 70f 65f
3:40  -   -   -  11 13 mph 1012.5mb 70f 65f
3:30  -   -   -  11 13 mph 1012.6mb 70f 65f
3:20  -   -   -  11 13 mph 1012.6mb 70f 65f
3:10  -   -   -  11 13 mph 1012.8mb 70f 65f
3:00  -   -   -  11 13 mph 1012.8mb 70f 65f
2:50 3ft 6s 5s 11 13 mph 1012.8mb 70f 65f
2:40  -   -   -  11 13 mph 1013mb 70f 65f
2:30  -   -   -  11 13 mph 1013mb 70f 65f
2:20  -   -   -  11 13 mph 1013.1mb 70f 65f
2:10  -   -   -  7 9 mph 1013.3mb 70f 66f
2:00  -   -   -  4 7 mph 1013.5mb 70f 66f
1:50 3ft 16s 5s 4 7 mph 1013.4mb 70f 66f
1:40  -   -   -  4 7 mph 1013.5mb 70f 66f
1:30  -   -   -  4 7 mph 1013.5mb 70f 66f
1:20  -   -   -  4 7 mph 1013.6mb 70f 65f
1:10  -   -   -  4 7 mph 1013.8mb 70f 65f
1:00  -   -   -  4
mph
1013.9mb 70f 65f
12:50 3ft 6s 5s 4 7 mph 1014mb 70f 65f
12:40  -   -   -  4 7 mph 1014mb 70f 65f
12:30  -   -   -  4 7 mph 1014.3mb 70f 65f
12:20  -   -   -  7 9 mph 1014.4mb 70f 65f
12:10  -   -   -  7 9 mph 1014.4mb 70f 66f
12:00  -   -   -  4 7 mph 1014.5mb 70f 66f
11:50 3ft 6s 5s 4
mph
1014.5mb 70f 65f
11:40 3ft  -  5s 4 7 mph 1014.5mb 70f 65f
11:30  -   -   -  7
mph
1014.5mb 70f 65f
11:20  -   -   -  7 9 mph 1014.5mb 70f 65f
11:10  -   -   -  7 9 mph 1014.5mb 70f 65f
11:00  -   -   -  7 9 mph 1014.5mb 70f 65f
10:50 3ft 6s 5s 7 9 mph 1014.5mb 70f 65f
10:40 3ft  -  5s 7
mph
1014.6mb 70f 65f
10:30  -   -   -  7 9 mph 1014.6mb 70f 65f
10:20  -   -   -  7 9 mph 1014.6mb 70f 65f
10:10  -   -   -  4 9 mph 1014.8mb 70f 65f
10:00  -   -   -  7 9 mph 1014.9mb 70f 65f
9:50 2.5ft 5s 5s 7 9 mph 1014.9mb 70f 65f
9:40  -   -   -  7 9 mph 1014.8mb 70f 65f
9:30  -   -   -  4 9 mph 1014.6mb 70f 65f
9:20  -   -   -  4 7 mph 1014.8mb 70f 65f
9:10  -   -   -  4 7 mph 1014.6mb 70f 64f
9:00  -   -   -  4 7 mph 1014.5mb 69f 65f
8:50 3ft 6s 6s 4 9 mph 1014.5mb 70f 65f
8:40 3ft  -  6s 4 9 mph 1014.5mb 70f 64f
8:30  -   -   -  7 9 mph 1014.5mb 70f 64f
8:20  -   -   -  7 11 mph 1014.4mb 70f 64f
8:10  -   -   -  4 9 mph 1014.4mb 70f 64f
8:00  -   -   -  7 9 mph 1014.4mb - 64f
7:50 3.5ft 6s 6s 7 9 mph 1014.4mb 70f 64f
7:40  -   -   -  7 9 mph 1014.4mb 70f 64f
7:30  -   -   -  7 9 mph 1014.3mb 70f 64f
7:20  -   -   -  7 9 mph 1014.3mb 70f 64f
7:10  -   -   -  7
mph
1014mb 70f 64f
7:00  -   -   -  7
mph
1014mb 70f 64f
6:50 3.5ft 7s 5s 7 9 mph 1014mb 70f 64f
6:40  -   -   -  4 9 mph 1014mb 70f 64f
6:30  -   -   -  4 7 mph 1013.8mb 70f 64f
6:20  -   -   -  4 7 mph 1013.6mb 70f 64f
6:10  -   -   -  4 7 mph 1013.6mb 70f 64f
6:00  -   -   -  4 7 mph 1013.5mb 70f 64f
5:50 3.5ft 6s 5s 4 7 mph 1013.5mb 70f 64f
5:40 3.5ft  -  5s 4 7 mph 1013.5mb 70f 64f
5:30  -   -   -  4 7 mph 1013.3mb 70f 64f
5:20  -   -   -  4 7 mph 1013.3mb 70f 64f
5:10  -   -   -  4 7 mph 1013.3mb 70f 64f
5:00  -   -   -  4 7 mph 1013.3mb 70f 64f
4:50 3.5ft 7s 5s 4 9 mph 1013.3mb 70f 64f
4:40  -   -   -  4 7 mph 1013.1mb 70f 64f
4:30  -   -   -  7 9 mph 1013mb 70f 64f
4:20  -   -   -  7 9 mph 1013.1mb 70f 64f
4:10  -   -   -  9 11 mph 1013.3mb 70f 64f
4:00  -   -   -  9 11 mph 1013.3mb 70f 64f
3:50 3.5ft 7s 5s 9 11 mph 1013.3mb 70f 64f
3:40  -   -   -  9 11 mph 1013.3mb 70f 64f
3:30  -   -   -  7 11 mph 1013.3mb 70f 64f
3:20  -   -   -  7 11 mph 1013.3mb 70f 64f
3:10  -   -   -  4 9 mph 1013.3mb 70f 65f
3:00  -   -   -  4 7 mph 1013.3mb 70f 65f
2:50 3.5ft 6s 5s 7 9 mph 1013.4mb 70f 65f
2:40  -   -   -  7 9 mph 1013.5mb 70f 65f
2:30  -   -   -  7 9 mph 1013.5mb 70f 64f
2:20  -   -   -  7 11 mph 1013.5mb 70f 65f
2:10  -   -   -  7 11 mph 1013.5mb 71f 64f
2:00  -   -   -  9 11 mph 1013.5mb 71f 64f
1:50 4ft 7s 5s 11 13 mph 1013.5mb 71f 64f
1:40  -   -   -  11 13 mph 1013.5mb 71f 64f
1:30  -   -   -  9 13 mph 1013.5mb 71f 64f
1:20  -   -   -  11 13 mph 1013.5mb 70f 64f
1:10  -   -   -  11 13 mph 1013.6mb 70f 64f
1:00  -   -   -  9 13 mph 1013.9mb 71f 64f
12:50 4ft 7s 5s 9 11 mph 1014mb 71f 64f
12:40  -   -   -  9 11 mph 1014mb 71f 64f
12:30  -   -   -  9 11 mph 1014mb 71f 64f
12:20  -   -   -  9 11 mph 1014mb 71f 64f
12:10  -   -   -  9 11 mph 1014mb 71f 65f
12:00  -   -   -  7 11 mph 1014mb 71f 65f
Mi 08/24 11:50 4.5ft 6s 5s 7 9 mph 1014mb 71f 65f
11:40  -   -   -  4 9 mph 1014mb 71f 65f
11:30  -   -   -  4 9 mph 1014mb 71f 65f
11:20  -   -   -  4 9 mph 1014mb 71f 65f
11:10  -   -   -  2 7 mph 1014mb 71f 65f
11:00  -   -   -  2 7 mph 1014mb 71f 65f
10:50 4.5ft 7s 5s 4 7 mph 1014mb 71f 65f
10:40  -   -   -  4 7 mph 1014mb 71f 65f
10:30  -   -   -  4 9 mph 1014mb 71f 65f
10:20  -   -   -  7 9 mph 1014mb 71f 65f
10:10  -   -   -  4 11 mph 1014mb 71f 65f
10:00  -   -   -  2 4 mph 1014mb 71f 65f
9:50 4.5ft 6s 5s 2 7 mph 1014mb 71f 65f
9:40  -   -   -  4 9 mph 1014mb 71f 65f
9:30  -   -   -  9 11 mph 1013.9mb 71f 65f
9:20  -   -   -  11 13 mph 1013.8mb 71f 65f
9:10  -   -   -  13 18 mph 1013.6mb 71f 65f
9:00  -   -   -  16 18 mph 1013.5mb 71f 65f
8:50 4.5ft 7s 5s 16 18 mph 1013.5mb 71f 65f
8:40  -   -   -  18 22 mph 1013.5mb 71f 65f
8:30  -   -   -  18 20 mph 1013.5mb 71f 65f
8:20  -   -   -  18 22 mph 1013.4mb 71f 65f
8:10  -   -   -  20 22 mph 1013.4mb 71f 65f
8:00  -   -   -  18 22 mph 1013.4mb 71f 66f
7:50 4ft 6s 5s 18 22 mph 1013.3mb 71f 66f
7:40 4ft  -  5s 18 22 mph 1013.3mb 71f 66f
7:30  -   -   -  18 22 mph 1013.3mb 71f 66f
7:20  -   -   -  20 25 mph 1013.3mb 71f 66f
7:10  -   -   -  16 20 mph 1013.3mb 71f 66f
7:00  -   -   -  16 20 mph 1013.3mb 71f 66f
6:50 3.5ft 7s 4s 16 20 mph 1013.3mb 71f 66f
6:40  -   -   -  18 22 mph 1013.3mb 71f 67f
6:30  -   -   -  18 22 mph 1013.3mb 71f 67f
6:20  -   -   -  16 20 mph 1013.3mb 71f 67f
6:10  -   -   -  16 20 mph 1013.3mb 72f 67f
6:00  -   -   -  16 18 mph 1013.4mb 72f 67f
5:50 3.5ft  -  5s 16 18 mph 1013.4mb - 67f
5:40 3.5ft 6s  -   -  mph - 72f -
5:30  -   -   -  16 18 mph 1013.5mb 72f 67f
5:20  -   -   -  16 18 mph 1013.5mb 72f 67f
5:10  -   -   -  16 18 mph 1013.6mb 72f 67f
5:00  -   -   -  16 20 mph 1013.8mb 72f 67f
4:50 3ft 6s 5s 16 20 mph 1013.8mb 72f 67f
4:40  -   -   -  13 16 mph 1013.9mb 72f 68f
4:30  -   -   -  13 16 mph 1014mb 72f 68f
4:20  -   -   -  13 16 mph 1014mb 72f 68f
4:10  -   -   -  11 16 mph 1014mb 72f 68f
4:00  -   -   -  9 13 mph 1014.1mb - 68f
3:50 2.5ft 6s 5s 7 9 mph 1014.5mb 72f 68f
3:40  -   -   -  7 9 mph 1014.5mb 72f 68f
3:30  -   -   -  7 9 mph 1014.6mb 72f 68f
3:20  -   -   -  7 9 mph 1014.8mb 72f 68f
3:10  -   -   -  7 9 mph 1014.9mb 72f 67f
3:00  -   -   -  7 9 mph 1014.9mb 72f 67f
2:50 3ft 5s 5s 7 9 mph 1015mb 72f 67f
2:40  -   -   -  7 9 mph 1015.1mb 72f 67f
2:30  -   -   -  4 9 mph 1015.3mb 72f 67f
2:20  -   -   -  4 7 mph 1015.5mb 72f 67f
2:10  -   -   -  4 7 mph 1015.6mb 72f 67f
2:00  -   -   -  4 9 mph 1015.6mb 72f 67f
1:50 3ft 6s 5s 7 9 mph 1015.8mb 71f 67f
1:40 3ft  -  5s 7 9 mph 1015.9mb 71f 67f
1:30  -   -   -  7 9 mph 1016mb 71f 67f
1:20  -   -   -  7 11 mph 1016mb 71f 67f
1:10  -   -   -  7 11 mph 1016mb 71f 68f
1:00  -   -   -  4 7 mph 1016.1mb 71f 67f
12:50 3ft 5s 5s 4 7 mph 1016.3mb 71f 67f
12:40  -   -   -  7
mph
1016.4mb 71f 67f
12:30  -   -   -  7
mph
1016.5mb 71f 67f
12:20  -   -   -  7 9 mph 1016.5mb 71f 67f
12:10  -   -   -  7
mph
1016.5mb 71f 67f
12:00  -   -   -  7 9 mph 1016.8mb 71f 67f
11:50 3ft 7s 5s 7 9 mph 1016.9mb 71f 67f
11:40 3ft  -  5s 4 7 mph 1017mb 71f 67f
11:30  -   -   -  4 7 mph 1017.1mb 71f 66f
11:20  -   -   -  4 7 mph 1017.1mb 71f 66f
11:10  -   -   -  4 7 mph 1017.4mb 71f 66f
11:00  -   -   -  4 7 mph 1017.5mb 71f 66f
10:50 3.5ft 6s 5s 7 9 mph 1017.5mb 71f 66f
10:40 3.5ft  -  5s 7 9 mph 1017.5mb 71f 66f
10:30  -   -   -  7
mph
1017.5mb 71f 66f
10:20  -   -   -  7 9 mph 1017.5mb 71f 66f
10:10  -   -   -  7 9 mph 1017.5mb 71f 66f
10:00  -   -   -  7
mph
1017.5mb 71f 66f
9:50 3.5ft 6s  -  7 9 mph 1017.4mb 71f 66f
9:40  -   -   -  7 9 mph 1017.4mb 71f 66f
9:30  -   -   -  7 9 mph 1017.4mb 71f 66f
9:20  -   -   -  7 9 mph 1017.4mb 71f 66f
9:10  -   -   -  7 9 mph 1017.3mb 71f 66f
9:00  -   -   -  7
mph
1017.3mb 71f 66f
8:50 3.5ft 6s 5s 7 9 mph 1017.3mb 71f 66f
8:40  -   -   -  4 7 mph 1017mb 71f 66f
8:30  -   -   -  4 7 mph 1017mb 71f 66f
8:20  -   -   -  7 9 mph 1017mb 70f 66f
8:10  -   -   -  7
mph
1017mb 70f 65f
8:00  -   -   -  4 9 mph 1017mb 70f 65f
7:50 3.5ft 6s 5s 7 9 mph 1017mb 70f 65f
7:40  -   -   -  7 9 mph 1016.9mb 70f 65f
7:30  -   -   -  4 9 mph 1016.8mb 70f 65f
7:20  -   -   -  4 9 mph 1016.8mb 70f 65f
7:10  -   -   -  4 7 mph 1016.5mb 70f 65f
7:00  -   -   -  4 7 mph 1016.5mb 70f 65f
6:50 3ft 6s 5s 4 7 mph 1016.5mb 70f 65f
6:40  -   -   -  4 7 mph 1016.5mb 70f 65f
6:30  -   -   -  4 7 mph 1016.4mb 70f 65f
6:20  -   -   -  4 7 mph 1016.3mb 70f 65f
6:10  -   -   -  4 9 mph 1016.1mb 70f 65f
6:00  -   -   -  4 7 mph 1016mb 70f 65f
5:50 3ft 6s 5s 4 7 mph 1016mb 70f 66f
5:40  -   -   -  4 7 mph 1016mb 70f 66f
5:30  -   -   -  4 7 mph 1016mb 70f 66f
5:20  -   -   -  4 7 mph 1016mb 70f 66f
5:10  -   -   -  7 9 mph 1016mb 70f 66f
5:00  -   -   -  7 9 mph 1016mb 70f 66f
4:50 2.5ft 13s 5s 4 7 mph 1015.9mb 70f 66f
4:40 2.5ft  -  5s 4 7 mph 1015.8mb 70f 66f
4:30  -   -   -  4 7 mph 1015.6mb 70f 66f
4:20  -   -   -  4 7 mph 1015.5mb 70f 66f
4:10  -   -   -  4 7 mph 1015.5mb 70f 66f
4:00  -   -   -  2 4 mph 1015.5mb - 66f
3:50 2.5ft 13s 5s 2 4 mph 1015.5mb 70f 66f
3:40  -   -   -  2 4 mph 1015.5mb 70f 66f
3:30  -   -   -  4
mph
1015.5mb 70f 66f
3:20  -   -   -  4
mph
1015.5mb 70f 66f
3:10  -   -   -  4 7 mph 1015.6mb 70f 66f
3:00  -   -   -  4
mph
1015.8mb 70f 66f
2:50 3ft 6s 5s 2 4 mph 1015.8mb 70f 65f
2:40  -   -   -  2 4 mph 1016mb 71f 65f
2:30  -   -   -  4 7 mph 1015.9mb 70f 65f
2:20  -   -   -  4 7 mph 1015.9mb 71f 65f
2:10  -   -   -  7 9 mph 1015.9mb 71f 65f
2:00  -   -   -  7 9 mph 1015.9mb 71f 66f
1:50 3.5ft 13s 5s 9 11 mph 1016mb 71f 66f
1:40  -   -   -  9 11 mph 1016mb 70f 66f
1:30  -   -   -  7 11 mph 1016mb 70f 66f
1:20  -   -   -  4 9 mph 1016mb 70f 66f
1:10  -   -   -   -  2 mph 1016.1mb 70f 66f
1:00  -   -   -   -  2 mph 1016.1mb 70f 66f
12:50 4ft 6s 5s  -  2 mph 1016.3mb 70f 66f
12:40  -   -   -   -  4 mph 1016.3mb 70f 66f
12:30  -   -   -  2 7 mph 1016.3mb 70f 66f
12:20  -   -   -  4 7 mph 1016.1mb 70f 66f
12:10  -   -   -  7 9 mph 1016mb 70f 66f
12:00  -   -   -  7 9 mph 1016.1mb 70f 66f
Di 08/23 11:50 4ft 6s 5s 7
mph
1016.3mb 70f 66f
11:40  -   -   -  2 4 mph 1016.3mb 70f 66f
11:30  -   -   -  4 7 mph 1016.3mb 70f 66f
11:20  -   -   -  4 7 mph 1016.4mb 70f 66f
11:10  -   -   -  4 7 mph 1016.3mb 70f 66f
11:00  -   -   -  4 7 mph 1016.4mb 70f 66f
10:50 3.5ft 6s 5s 4 7 mph 1016.5mb 70f 66f
10:40 3.5ft  -  5s 4 7 mph 1016.5mb 70f 66f
10:30  -   -   -  7
mph
1016.5mb 70f 66f
10:20  -   -   -  7 9 mph 1016.5mb 70f 66f
10:10  -   -   -  7 9 mph 1016.5mb 70f 66f
10:00  -   -   -  7 9 mph 1016.5mb 70f 67f
9:50 3.5ft 6s 5s 9 11 mph 1016.5mb 70f 67f
9:40  -   -   -  9 11 mph 1016.4mb 70f 67f
9:30  -   -   -  9 13 mph 1016.4mb 70f 67f
9:20  -   -   -  11 13 mph 1016.4mb 71f 67f
9:10  -   -   -  9 13 mph 1016.3mb 71f 67f
9:00  -   -   -  9 11 mph 1016.3mb 70f 67f
8:50 3.5ft 6s 5s 11 13 mph 1016mb 71f 67f
8:40  -   -   -  7 13 mph 1016mb 71f 67f
8:30  -   -   -  7
mph
1015.9mb 71f 67f
8:20  -   -   -  7 9 mph 1015.8mb 71f 67f
8:10  -   -   -  7 9 mph 1015.6mb 71f 67f
8:00  -   -   -  9 11 mph 1015.5mb 71f 67f
7:50 3ft 5s 5s 9 11 mph 1015.5mb 71f 67f
7:40 3ft  -  5s 9 11 mph 1015.4mb 71f 67f
7:30  -   -   -  9 13 mph 1015.4mb 71f 67f
7:20  -   -   -  9 11 mph 1015.4mb 71f 67f
7:10  -   -   -  9 11 mph 1015.3mb 71f 67f
7:00  -   -   -  7 9 mph 1015.4mb 71f 68f
6:50 2.5ft 13s 5s 7 9 mph 1015.3mb 72f 68f
6:40  -   -   -  7 9 mph 1015.3mb 72f 68f
6:30  -   -   -  7 9 mph 1015.1mb 72f 68f
6:20  -   -   -  7 9 mph 1015.1mb 72f 68f
6:10  -   -   -  7 9 mph 1015.3mb 72f 68f
6:00  -   -   -  9 11 mph 1015.4mb 72f 68f
5:50 2.5ft 13s 5s 9 11 mph 1015.4mb 72f 68f
5:40  -   -   -  7 9 mph 1015.5mb 72f 68f
5:30  -   -   -  7 9 mph 1015.8mb 72f 68f
5:20  -   -   -  7 11 mph 1015.6mb 72f 68f
5:10  -   -   -  9 11 mph 1015.5mb 72f 68f
5:00  -   -   -  9 11 mph 1015.8mb 72f 68f
4:50 2.5ft 13s 5s 9 11 mph 1015.8mb 72f 68f
4:40  -   -   -  9 11 mph 1015.8mb 72f 68f
4:30  -   -   -  9 11 mph 1015.8mb 72f 68f
4:20  -   -   -  9 11 mph 1015.9mb 72f 68f
4:10  -   -   -  7 9 mph 1015.9mb 72f 68f
4:00  -   -   -  9
mph
1015.9mb 72f 67f
3:50 2.5ft 13s 6s 9 11 mph 1016mb 72f 67f
3:40  -   -   -  7 9 mph 1016.3mb 72f 67f
3:30  -   -   -  9
mph
1016.3mb 72f 67f
3:20  -   -   -  7 9 mph 1016.3mb 72f 67f
3:10  -   -   -  7 9 mph 1016.4mb 72f 67f
3:00  -   -   -  7 9 mph 1016.5mb 72f 68f
2:50 2.5ft 13s 5s 7 9 mph 1016.5mb 72f 67f
2:40  -   -   -  7 9 mph 1016.5mb 72f 67f
2:30  -   -   -  7 9 mph 1016.5mb 72f 67f
2:20  -   -   -  7 9 mph 1016.6mb 72f 67f
2:10  -   -   -  7 9 mph 1016.6mb 72f 67f
2:00  -   -   -  7 11 mph 1016.8mb 72f 67f
1:50 2.5ft 13s 5s 7 9 mph 1016.9mb 72f 67f
1:40  -   -   -  7 9 mph 1017mb 72f 67f
1:30  -   -   -  7 9 mph 1017mb 72f 67f
1:20  -   -   -  9 11 mph 1017mb 72f 67f
1:10  -   -   -  7 11 mph 1017mb 72f 68f
1:00  -   -   -  7 9 mph 1017.1mb 72f 68f
12:50 2.5ft 13s 5s 7 9 mph 1017mb 71f 68f
12:40 2.5ft  -  5s 7 9 mph 1017mb 71f 68f
12:30  -   -   -  2 4 mph 1017.1mb 71f 68f
12:20  -   -   -  2 4 mph 1017.3mb 71f 68f
12:10  -   -   -  4 7 mph 1017.3mb 71f 68f
12:00  -   -   -  4 7 mph 1017.1mb 71f 68f
11:50 2.5ft 13s 6s 4 7 mph 1017.1mb 71f 68f
11:40  -   -   -  4 7 mph 1017.3mb 71f 68f
11:30  -   -   -  4 7 mph 1017.3mb 71f 68f
11:20  -   -   -  4
mph
1017.4mb 71f 68f
11:10  -   -   -  2 4 mph 1017.4mb 71f 68f
11:00  -   -   -  4 9 mph 1017.4mb 71f 68f
10:50 2.5ft 13s 5s 7 9 mph 1017.3mb 71f 68f
10:40  -   -   -  7 9 mph 1017.1mb 71f 68f
10:30  -   -   -  7 9 mph 1017.1mb 71f 68f
10:20  -   -   -  4 9 mph 1017.1mb 71f 67f